Date,TemperatureHighF,TemperatureAvgF,TemperatureLowF,DewpointHighF,DewpointAvgF,DewpointLowF,HumidityHigh,HumidityAvg,HumidityLow,PressureMaxIn,PressureMinIn,WindSpeedMaxMPH,WindSpeedAvgMPH,GustSpeedMaxMPH,PrecipitationSumIn
2013-5-1,83.6,68.7,58.0,46.5,28.0,13.5,42,24,10,30.09,29.87,5,1,9,0.00
2013-5-2,91.2,70.0,54.4,46.9,32.7,20.2,51,28,11,30.16,30.09,1,0,4,0.00
2013-5-3,88.4,68.0,55.9,54.9,39.2,20.8,61,36,17,30.09,29.81,1,0,1,0.00
2013-5-4,85.7,64.8,50.7,58.1,45.4,32.1,90,54,22,29.81,29.59,4,0,5,0.00
2013-5-5,66.8,56.3,51.7,52.7,48.6,47.5,89,76,60,29.83,29.62,3,0,9,0.00
2013-5-6,70.9,58.4,50.8,53.2,49.9,47.6,90,74,47,29.98,29.82,1,0,2,0.00
2013-5-7,73.2,59.4,50.2,58.3,52.2,47.6,100,79,52,30.04,29.97,1,0,7,0.00
2013-5-8,64.3,53.0,48.5,53.8,49.8,45.7,100,90,66,30.14,30.04,0,0,4,0.00
2013-5-9,70.3,54.9,46.7,56.9,49.4,45.4,100,84,55,30.17,30.09,0,0,2,0.00
2013-5-10,70.8,55.4,47.7,58.4,50.5,45.8,100,85,59,30.19,30.11,1,0,2,0.00
2013-5-11,77.4,57.5,45.8,61.3,50.9,45.4,100,81,52,30.15,30.07,1,0,5,0.00
2013-5-12,78.3,60.4,47.1,62.7,51.9,46.1,100,77,45,30.15,30.03,0,0,1,0.00
2013-5-13,84.7,62.8,44.2,62.8,51.3,43.6,100,70,41,30.08,29.94,1,0,4,0.00
2013-5-14,83.4,65.6,52.3,57.3,48.8,42.7,78,57,30,29.98,29.90,1,0,3,0.00
2013-5-15,77.6,59.7,44.8,53.5,45.7,40.0,86,62,38,30.03,29.96,1,0,6,0.00
2013-5-16,74.4,64.5,53.8,56.3,49.9,44.6,78,60,42,30.02,29.95,2,0,6,0.00
2013-5-17,72.0,62.0,49.2,51.6,44.7,40.4,79,55,36,30.07,30.01,1,0,4,0.00
2013-5-18,80.7,64.5,46.5,53.6,46.2,40.1,84,54,33,30.14,30.06,2,0,8,0.00
2013-5-19,83.4,67.0,52.2,54.4,43.8,34.8,71,47,21,30.13,29.99,2,0,6,0.00
2013-5-20,88.6,69.0,48.9,53.9,45.7,35.8,84,47,19,30.01,29.91,4,0,6,0.00
2013-5-21,73.9,59.0,47.4,48.4,42.2,31.2,87,56,23,30.01,29.90,4,1,10,0.00
2013-5-22,70.4,55.8,43.8,42.8,32.7,26.1,67,43,25,30.05,29.92,4,1,11,0.00
2013-5-23,56.5,48.1,43.3,39.6,37.3,35.4,75,67,52,30.01,29.91,0,0,3,0.00
2013-5-24,75.4,59.3,44.9,50.1,41.8,36.8,77,54,29,30.00,29.92,1,0,3,0.00
2013-5-25,49.4,47.7,45.7,40.7,39.2,38.0,77,72,68,29.97,29.94,0,0,0,0.00
2013-5-27,62.9,58.2,54.7,56.0,53.9,51.8,100,86,68,30.11,30.00,1,0,4,0.10
2013-5-28,74.7,61.0,53.6,63.1,54.2,48.1,100,81,50,30.01,29.92,2,0,3,0.03
2013-5-29,77.4,63.1,52.2,57.9,51.0,44.9,85,66,42,29.97,29.90,1,0,5,0.00
2013-5-30,81.6,63.2,49.1,54.9,44.7,39.2,78,54,29,29.99,29.93,1,0,3,0.00
2013-5-31,88.6,69.3,53.1,56.9,46.7,39.7,69,48,19,30.02,29.92,1,0,3,0.00